Location: Carrières
(48.9495°N, 2.0407°E)
Time: 22:59:45
(UTC+00:00)

Cosmos 1606 Rocket - Pass Details

Date: 28 January 2023
Orbit: 602 x 630 km, 82.5° (Epoch: 21 March)

Event Time Altitude Azimuth Distance (km) Brightness Sun altitude
Rises 18:27:22 0° 354° (N) 2,871 7.0 -17.2°
Reaches altitude 10° 18:29:40 10° 1° (N) 1,961 6.0 -17.6°
Maximum altitude 18:33:51 48° 76° (ENE) 799 3.7 -18.3°
Enters shadow 18:36:19 22° 140° (SE) 1,318 4.9 -18.7°
